Terminal Aerodrome Forecast
Issued by NWS

Home | Current Version | Previous Version | Text Only | Print | Product List | Glossary Off
Versions: 1 2 3 4 5 6 7 8 9 10 11 12 13 14 15 16 17 18 19 20 21 22 23 24 25 26 27

000
FTUS43 KICT 262150 AAC
TAFHUT
TAF AMD
KHUT 262150Z 2622/2718 13011KT P6SM VCTS BKN035CB
      TEMPO 2622/2702 VRB25G40KT 2SM +TSRA OVC025CB
     FM270600 14007KT P6SM OVC015
      TEMPO 2710/2714 OVC008=

USA.gov is the U.S. government's official web portal to all federal, state and local government web resources and services.